Location: Banksville Park
(38.5557°N, 75.1182°W)
Time: 02:56:38
(UTC+00:00)

Envisat - Pass Details

Date: 27 November 2020
Orbit: 764 x 766 km, 98.1° (Epoch: 16 January)

Event Time Altitude Azimuth Distance (km) Brightness Sun altitude
Rises 09:30:52 0° 36° (NE) 3,238 6.6 -27.9°
Reaches altitude 10° 09:34:39 10° 65° (ENE) 2,305 6.2 -27.1°
Maximum altitude 09:36:49 13° 90° (E) 2,121 6.2 -26.7°
Drops below altitude 10° 09:38:58 10° 116° (ESE) 2,298 6.4 -26.3°
Sets 09:42:42 0° 144° (SE) 3,217 6.8 -25.6°
